DW9936 Weather Reports


time (UTC)temp
C
wind
direction
speed
KPH
gust
KPH
rain 1hr
cm
rain 24hr
cm
rain mn
cm
humidity
%
barometer
mb
20260904213022 20 278 0.0 0.0 0.00 0.00 0.00 63 1012.0
20260904211526 20 278 0.0 0.0 0.00 0.00 0.00 62 1012.0
20260904210024 21 278 0.0 0.0 0.00 0.00 0.00 60 1012.0
20260904204520 21 278 0.0 0.0 0.00 0.00 0.00 59 1012.0
20260904203031 21 279 0.0 0.0 0.00 0.00 0.00 57 1011.9
20260904201519 22 279 0.0 0.0 0.00 0.00 0.00 56 1011.9
20260904200019 22 274 0.0 0.0 0.00 0.00 0.00 55 1011.9
20260904194523 22 274 0.0 0.0 0.00 0.00 0.00 54 1011.8
20260904193018 23 274 0.0 0.0 0.00 0.00 0.00 52 1011.9
20260904191518 23 274 0.0 0.0 0.00 0.00 0.00 51 1011.9
20260904190017 23 273 0.0 1.6 0.00 0.00 0.00 49 1011.7
20260904184525 24 254 0.0 1.6 0.00 0.00 0.00 49 1011.5
20260904183017 25 254 0.0 0.0 0.00 0.00 0.00 48 1011.4
20260904181516 26 254 0.0 0.0 0.00 0.00 0.00 46 1011.1
20260904180016 27 254 0.0 0.0 0.00 0.00 0.00 43 1010.9
20260904174516 27 254 0.0 0.0 0.00 0.00 0.00 41 1010.9
20260904173029 28 254 0.0 0.0 0.00 0.00 0.00 38 1010.9
20260904171516 30 254 0.0 1.6 0.00 0.00 0.00 36 1010.9
20260904170015 30 250 0.0 3.2 0.00 0.00 0.00 33 1011.0
20260904164514 31 152 0.0 4.8 0.00 0.00 0.00 33 1011.1
20260904163010 31 321 0.0 9.7 0.00 0.00 0.00 33 1011.4
20260904161508 31 184 0.0 6.4 0.00 0.00 0.00 33 1011.6
20260904160007 31 211 1.6 12.9 0.00 0.00 0.00 32 1011.8
20260904154505 31 107 0.0 8.0 0.00 0.00 0.00 33 1011.9
20260904153004 31 215 1.6 6.4 0.00 0.00 0.00 33 1012.2
20260904151501 32 126 0.0 8.0 0.00 0.00 0.00 33 1012.4
20260904150104 32 355 0.0 8.0 0.00 0.00 0.00 33 1012.7
20260904144607 32 355 0.0 9.7 0.00 0.00 0.00 33 1012.8
20260904143056 31 184 1.6 12.9 0.00 0.00 0.00 34 1013.0
20260904141553 32 246 0.0 4.8 0.00 0.00 0.00 34 1013.2
20260904140057 31 193 1.6 11.3 0.00 0.00 0.00 35 1013.4
20260904134551 31 121 1.6 12.9 0.00 0.00 0.00 35 1013.8
20260904133047 31 182 3.2 11.3 0.00 0.00 0.00 35 1013.8
20260904131545 31 161 3.2 14.5 0.00 0.00 0.00 36 1014.1
20260904130044 31 227 1.6 8.0 0.00 0.00 0.00 37 1014.3
20260904124540 31 182 1.6 12.9 0.00 0.00 0.00 37 1014.5
20260904123038 31 113 3.2 12.9 0.00 0.00 0.00 37 1014.7
20260904121537 31 125 1.6 8.0 0.00 0.00 0.00 38 1014.8
20260904120033 31 264 3.2 12.9 0.00 0.00 0.00 38 1015.0
20260904114537 30 242 1.6 20.9 0.00 0.00 0.00 38 1015.3
20260904113033 30 323 3.2 19.3 0.00 0.00 0.00 39 1015.6
20260904111528 30 171 3.2 14.5 0.00 0.00 0.00 39 1015.8
20260904110026 30 355 3.2 9.7 0.00 0.00 0.00 39 1016.3
20260904104523 30 24 1.6 11.3 0.00 0.00 0.00 39 1016.3
20260904103020 30 5 3.2 16.1 0.00 0.00 0.00 41 1016.6
20260904101518 29 157 1.6 17.7 0.00 0.00 0.00 42 1017.0
20260904100014 28 193 4.8 24.1 0.00 0.00 0.00 43 1017.3
20260904094524 28 121 0.0 19.3 0.00 0.00 0.00 44 1017.5
20260904093008 28 338 3.2 14.5 0.00 0.00 0.00 46 1017.6
20260904091505 27 341 1.6 8.0 0.00 0.00 0.00 48 1017.7
20260904090002 26 159 0.0 8.0 0.00 0.00 0.00 50 1017.9
20260904084600 26 25 1.6 12.9 0.00 0.00 0.00 53 1018.0
20260904083107 25 77 0.0 3.2 0.00 0.00 0.00 58 1018.1
20260904081557 25 117 1.6 6.4 0.00 0.00 0.00 56 1018.2
20260904080104 26 92 0.0 9.7 0.00 0.00 0.00 53 1018.2
20260904074556 26 92 0.0 4.8 0.00 0.00 0.00 55 1018.3
20260904073101 24 94 0.0 6.4 0.00 0.00 0.00 57 1018.3
20260904071546 23 170 0.0 3.2 0.00 0.00 0.00 59 1018.5
20260904070045 23 149 0.0 3.2 0.00 0.00 0.00 62 1018.6
20260904064542 22 94 0.0 3.2 0.00 0.00 0.00 66 1018.6
20260904063035 20 252 0.0 0.0 0.00 0.00 0.00 73 1018.5
20260904061538 19 252 0.0 0.0 0.00 0.00 0.00 79 1018.6
20260904060046 17 252 0.0 0.0 0.00 0.00 0.00 81 1018.7
20260904054538 17 252 0.0 0.0 0.00 0.00 0.00 81 1018.5
20260904053024 16 252 0.0 0.0 0.00 0.00 0.00 81 1018.5
20260904051525 16 252 0.0 0.0 0.00 0.00 0.00 81 1018.7
20260904050037 16 252 0.0 0.0 0.00 0.00 0.00 82 1018.6
20260904044526 16 252 0.0 0.0 0.00 0.00 0.00 82 1018.6
20260904043019 16 252 0.0 0.0 0.00 0.00 0.00 82 1018.6
20260904041520 16 252 0.0 0.0 0.00 0.00 0.00 81 1018.6
20260904040033 16 252 0.0 0.0 0.00 0.00 0.00 81 1018.5
20260904034514 17 252 0.0 0.0 0.00 0.00 0.00 80 1018.7
20260904033011 17 252 0.0 0.0 0.00 0.00 0.00 80 1018.5
20260904031512 17 252 0.0 0.0 0.00 0.00 0.00 78 1018.4
20260904030006 17 252 0.0 0.0 0.00 0.00 0.00 77 1018.4
20260904024508 18 252 0.0 0.0 0.00 0.00 0.00 76 1018.4
20260904023007 18 252 0.0 0.0 0.00 0.00 0.00 76 1018.3
20260904021512 18 252 0.0 0.0 0.00 0.00 0.00 77 1018.3
20260904020004 18 252 0.0 0.0 0.00 0.00 0.00 76 1018.4
20260904014502 18 252 0.0 0.0 0.00 0.00 0.00 76 1018.3
20260904013124 18 252 0.0 0.0 0.00 0.00 0.00 75 1018.6
20260904011600 18 252 0.0 0.0 0.00 0.00 0.00 74 1018.5
20260904010059 18 252 0.0 0.0 0.00 0.00 0.00 75 1018.7
20260904004558 18 252 0.0 0.0 0.00 0.00 0.00 75 1018.8
20260904003056 18 252 0.0 0.0 0.00 0.00 0.00 75 1019.0
20260904001607 18 252 0.0 0.0 0.00 0.00 0.00 74 1019.2
20260904000054 18 252 0.0 0.0 0.00 0.00 0.00 73 1019.2
20260903234552 18 252 0.0 0.0 0.00 0.00 0.00 73 1019.1
20260903233049 18 252 0.0 0.0 0.00 0.00 0.00 70 1019.2
20260903231544 19 252 0.0 0.0 0.00 0.00 0.00 69 1019.2
20260903230041 20 252 0.0 1.6 0.00 0.00 0.00 68 1019.4
20260903224541 20 250 0.0 1.6 0.00 0.00 0.00 66 1019.5
20260903223041 20 232 0.0 1.6 0.00 0.00 0.00 64 1019.5
20260903221534 21 226 0.0 0.0 0.00 0.00 0.00 63 1019.6
20260903220032 21 309 0.0 1.6 0.00 0.00 0.00 62 1019.6
20260903214537 21 327 0.0 1.6 0.00 0.00 0.00 61 1019.8